Location: Bakov nad Jizerou
(50.4784°N, 14.9394°E)
Time: 03:09:40
(UTC+00:00)

Cosmos 1727 Rocket - Pass Details

Date: 25 October 2021
Orbit: 960 x 997 km, 82.9° (Epoch: 07 December)

Event Time Altitude Azimuth Distance (km) Brightness Sun altitude
Rises 04:16:07 0° 161° (SSE) 3,696 7.3 -13.8°
Reaches altitude 10° 04:18:48 10° 154° (SSE) 2,747 6.7 -13.4°
Maximum altitude 04:24:33 39° 88° (E) 1,438 5.6 -12.5°
Drops below altitude 10° 04:30:18 10° 22° (NNE) 2,743 6.6 -11.6°
Sets 04:32:57 0° 15° (NNE) 3,689 7.2 -11.2°
